Вернуться в каталог

STARLINK-35527

АктивенСвязьVLEO
NORAD 66092·PAYLOAD·🇺🇸 United States

Запущен Oct 19, 2025 с Vandenberg Space Force Base

Loading…

Ближайшие Пролёты (ближайшие 24 часа)

TLE

СвежийSource: CelesTrak SupGP

Эпоха: Sep 15, 2026, 04:18 UTC

1 66092C 25236G   26258.17965278 -.00002458  00000+0 -72608-4 0  2584
2 66092  53.1584 300.2389 0001272  85.4254 336.0734 15.34399761    11

Отслеживайте STARLINK-35527 в реальном времени с AllMySat

Download on the App Store